Regional Weather Roundup
Issued by NWS

Home | Current Version | Previous Version | Graphics & Text | Print | Product List | Glossary On
Versions: 1 2 3 4 5 6 7 8 9 10 11 12 13 14 15 16 17 18 19 20 21 22 23 24 25 26 27 28 29 30 31 32 33 34 35 36 37 38 39 40 41 42 43 44 45 46 47 48 49 50
000
ASUS43 KLSX 280559
RWRMO

WEATHER SUMMARY FOR MISSOURI
NATIONAL WEATHER SERVICE SPRINGFIELD MO
100 AM CDT FRI APR 28 2017

NOTE: "FAIR" INDICATES FEW OR NO CLOUDS BELOW 12,000 FEET WITH NO
       SIGNIFICANT WEATHER AND/OR OBSTRUCTIONS TO VISIBILITY.
       CURRENT SKY AND/OR WEATHER CONDITIONS ARE NOT AVAILABLE FOR
       CHILLICOTHE AND FARMINGTON.

MOZ001>031-035>038-043-044-053-054-280700-
...NORTHERN AND WESTERN MISSOURI...

CITY           SKY/WX    TMP DP  RH WIND       PRES   REMARKS
KANSAS CTY INT LGT RAIN  51  47  86 NE8       29.76S
6HR MIN TEMP:  50; 6HR MAX TEMP:  56; 6HR PCP:  0.03;

KANSAS C DTWN  CLOUDY    53  47  79 NE8       29.76R
6HR MIN TEMP:  53; 6HR MAX TEMP:  60; 6HR PCP: TRACE;

LEE`S SUMMIT   CLOUDY    52  48  86 NE8       29.76S
6HR MIN TEMP:  52; 6HR MAX TEMP:  59; 6HR PCP:  0.04;

ST JOSEPH      CLOUDY    51  49  92 NE6       29.78R
6HR MIN TEMP:  50; 6HR MAX TEMP:  61; 6HR PCP:  0.08;

CHILLICOTHE      N/A     50  49  96 CALM      29.81R
6HR MIN TEMP:  50; 6HR MAX TEMP:  62; 6HR PCP:  0.03;

KIRKSVILLE     CLOUDY    49  47  93 CALM      29.82R
6HR MIN TEMP:  48; 6HR MAX TEMP:  57;


$$
MOZ066>068-077>081-088>096-101>105-280700-
...SOUTHWEST MISSOURI...

CITY           SKY/WX    TMP DP  RH WIND       PRES   REMARKS
SPRINGFIELD    LGT RAIN  56  50  80 S13G22    29.77S
6HR MIN TEMP:  56; 6HR MAX TEMP:  63; 6HR PCP: TRACE;

JOPLIN         CLOUDY    57  51  80 SE15G23   29.68F
6HR MIN TEMP:  55; 6HR MAX TEMP:  63; 6HR PCP:  0.01;


$$
MOZ032>034-039>042-045>050-055>058-069>072-280700-
...CENTRAL MISSOURI...

CITY           SKY/WX    TMP DP  RH WIND       PRES   REMARKS
COLUMBIA       MOCLDY    53  46  77 E5        29.81R
6HR MIN TEMP:  53; 6HR MAX TEMP:  60;

JEFFERSON CITY CLOUDY    56  46  69 SE3       29.81R
6HR MIN TEMP:  56; 6HR MAX TEMP:  63;

ROLLA          CLOUDY    52  47  83 SE5       29.80F
6HR MIN TEMP:  52; 6HR MAX TEMP:  60;

SEDALIA        CLOUDY    54  48  80 E8        29.80S
6HR MIN TEMP:  53; 6HR MAX TEMP:  60; 6HR PCP: TRACE;

OSAGE BEACH    MOCLDY    54  47  77 E5        29.80S

$$
MOZ051-052-059>065-280700-
...EAST CENTRAL MISSOURI...

CITY           SKY/WX    TMP DP  RH WIND       PRES   REMARKS
ST LOUIS INTL  CLOUDY    57  49  74 SE6       29.85R
6HR MIN TEMP:  55; 6HR MAX TEMP:  62;

SPIRIT OF STL  CLOUDY    53  51  93 CALM      29.84R
6HR MIN TEMP:  53; 6HR MAX TEMP:  61;

ST CHARLES     MOCLDY    53  50  89 E5        29.83R
6HR MIN TEMP:  52; 6HR MAX TEMP:  59;


$$
MOZ072>076-082>087-097>100-106>115-280700-
...SOUTH CENTRAL AND SOUTHEAST MISSOURI...

CITY           SKY/WX    TMP DP  RH WIND       PRES   REMARKS
CAPE GIRARDEAU CLOUDY    54  50  86 NE5       29.85S
6HR MIN TEMP:  53; 6HR MAX TEMP:  59;

FARMINGTON     CLOUDY    53  49  86 SE9       29.84S
6HR MIN TEMP:  53; 6HR MAX TEMP:  61;

POPLAR BLUFF   PTCLDY    57  55  93 NE3       29.84R
6HR MIN TEMP:  57; 6HR MAX TEMP:  62;

WEST PLAINS    CLOUDY    56  51  84 VRB3      29.83R
6HR MIN TEMP:  56; 6HR MAX TEMP:  63;


$$




USA.gov is the U.S. government's official web portal to all federal, state and local government web resources and services.